EW5657 Weather Reports


Display with metric or nautical units.
time (UTC)temp
F
wind
direction
speed
MPH
gust
MPH
rain 1hr
in
rain 24hr
in
rain mn
in
humidity
%
barometer
mb
20260508213152 55 240 1.0 9.0 0.00 0.02 0.02 94 1028.0
20260508212648 55 234 1.0 4.0 0.01 0.02 0.02 94 1028.0
20260508212151 55 240 1.0 4.0 0.01 0.02 0.02 94 1028.0
20260508211650 55 245 1.0 4.0 0.01 0.02 0.02 94 1028.0
20260508211146 55 252 1.0 4.0 0.01 0.02 0.02 94 1028.0
20260508210647 55 252 1.0 4.0 0.01 0.02 0.02 94 1027.9
20260508210147 55 227 1.0 3.0 0.01 0.02 0.02 94 1027.9
20260508205646 55 227 1.0 5.0 0.01 0.02 0.02 94 1027.9
20260508205145 55 233 0.0 5.0 0.01 0.02 0.02 94 1027.8
20260508204646 55 231 0.0 5.0 0.01 0.02 0.02 94 1027.8
20260508204143 55 231 0.0 5.0 0.01 0.02 0.02 94 1027.7
20260508203645 55 233 1.0 4.0 0.01 0.02 0.02 93 1027.7
20260508203144 55 229 1.0 4.0 0.01 0.02 0.02 93 1027.6
20260508202648 55 231 1.0 6.0 0.01 0.02 0.02 93 1027.6
20260508202643 55 229 0.0 3.0 0.00 0.02 0.02 93 1027.6
20260508201644 55 232 1.0 6.0 0.01 0.02 0.02 93 1027.6
20260508201144 55 232 0.0 4.0 0.01 0.02 0.02 93 1027.5
20260508200644 55 238 0.0 1.0 0.01 0.02 0.02 93 1027.5
20260508200133 55 238 0.0 2.0 0.01 0.02 0.02 93 1027.4
20260508195632 55 238 0.0 2.0 0.01 0.02 0.02 93 1027.4
20260508195134 55 239 0.0 2.0 0.01 0.02 0.02 93 1027.3
20260508194634 55 239 0.0 4.0 0.01 0.02 0.02 93 1027.3
20260508194132 55 239 0.0 4.0 0.01 0.02 0.02 93 1027.2
20260508193632 55 237 0.0 3.0 0.01 0.02 0.02 93 1027.1
20260508193134 55 237 1.0 7.0 0.01 0.02 0.02 93 1027.1
20260508192638 55 213 0.0 5.0 0.00 0.01 0.01 93 1027.1
20260508192634 55 294 0.0 7.0 0.01 0.02 0.02 93 1027.1
20260508191633 55 208 1.0 5.0 0.00 0.01 0.01 93 1027.0
20260508191131 55 231 1.0 4.0 0.00 0.01 0.01 93 1027.1
20260508190631 55 208 1.0 4.0 0.00 0.01 0.01 93 1027.0
20260508190132 55 235 0.0 3.0 0.00 0.01 0.01 93 1027.1
20260508185632 55 233 0.0 3.0 0.00 0.01 0.01 93 1027.0
20260508185131 55 233 1.0 5.0 0.00 0.01 0.01 93 1027.0
20260508184632 55 231 1.0 7.0 0.00 0.01 0.01 93 1027.0
20260508184137 55 212 0.0 4.0 0.00 0.01 0.01 93 1026.8
20260508184131 55 264 1.0 7.0 0.00 0.01 0.01 93 1026.9
20260508183132 55 212 1.0 4.0 0.00 0.01 0.01 93 1026.8
20260508182632 55 242 1.0 6.0 0.00 0.01 0.01 93 1026.8
20260508182128 55 246 1.0 6.0 0.00 0.01 0.01 92 1026.7
20260508181639 55 243 0.0 4.0 0.00 0.01 0.01 92 1026.7
20260508181629 55 234 0.0 5.0 0.00 0.01 0.01 92 1026.7
20260508181129 55 243 0.0 4.0 0.00 0.01 0.01 92 1026.6
20260508180129 55 241 1.0 4.0 0.00 0.01 0.01 92 1026.5
20260508175630 55 243 1.0 4.0 0.01 0.01 0.01 92 1026.6
20260508175130 55 233 1.0 5.0 0.01 0.01 0.01 92 1026.6
20260508174630 55 233 1.0 5.0 0.01 0.01 0.01 92 1026.6
20260508174128 55 225 0.0 4.0 0.01 0.01 0.01 92 1026.7
20260508173630 55 205 0.0 5.0 0.01 0.01 0.01 92 1026.6
20260508173132 55 226 1.0 6.0 0.01 0.01 0.01 92 1026.6
20260508173126 55 206 0.0 5.0 0.01 0.01 0.01 92 1026.7
20260508172625 55 229 1.0 4.0 0.01 0.01 0.01 92 1026.6
20260508171626 55 235 0.0 6.0 0.01 0.01 0.01 91 1026.7
20260508171122 55 249 1.0 6.0 0.01 0.01 0.01 91 1026.7
20260508170622 55 250 1.0 5.0 0.01 0.01 0.01 91 1026.7
20260508170129 56 225 0.0 2.0 0.00 0.00 0.00 91 1026.6
20260508170123 55 264 1.0 6.0 0.01 0.01 0.01 91 1026.7
20260508165623 55 269 0.0 6.0 0.00 0.00 0.00 91 1026.7
20260508165251 56 224 0.0 4.0 0.00 0.00 0.00 91 1026.6
20260508164122 56 228 1.0 4.0 0.00 0.00 0.00 91 1026.6
20260508163624 56 255 0.0 3.0 0.00 0.00 0.00 91 1026.5
20260508163124 56 257 1.0 10.0 0.00 0.00 0.00 90 1026.7
20260508162623 56 258 1.0 10.0 0.00 0.00 0.00 90 1026.6
20260508162124 56 224 1.0 4.0 0.00 0.00 0.00 90 1026.5
20260508161630 56 215 1.0 3.0 0.00 0.00 0.00 90 1026.5
20260508161623 56 219 0.0 4.0 0.00 0.00 0.00 90 1026.6
20260508161245 56 212 1.0 7.0 0.00 0.00 0.00 90 1026.6
20260508160129 56 204 1.0 8.0 0.00 0.00 0.00 90 1026.5
20260508160122 56 197 1.0 7.0 0.00 0.00 0.00 90 1026.6
20260508155751 56 175 1.0 8.0 0.00 0.00 0.00 90 1026.5
20260508155249 56 231 1.0 8.0 0.00 0.00 0.00 89 1026.5
20260508154131 56 224 1.0 4.0 0.00 0.00 0.00 89 1026.5
20260508154124 56 205 1.0 8.0 0.00 0.00 0.00 90 1026.5
20260508153122 56 226 1.0 4.0 0.00 0.00 0.00 89 1026.4
20260508152622 55 224 0.0 3.0 0.00 0.00 0.00 89 1026.4
20260508152122 56 242 0.0 3.0 0.00 0.00 0.00 89 1026.4
20260508151622 56 241 0.0 7.0 0.00 0.00 0.00 89 1026.4
20260508151123 56 240 1.0 7.0 0.00 0.00 0.00 89 1026.4
20260508150623 56 258 1.0 3.0 0.00 0.00 0.00 89 1026.4
20260508150124 56 257 0.0 3.0 0.00 0.00 0.00 88 1026.5
20260508145623 56 261 0.0 2.0 0.00 0.00 0.00 88 1026.5
20260508145123 56 264 0.0 2.0 0.00 0.00 0.00 88 1026.5
20260508144621 56 264 1.0 7.0 0.00 0.00 0.00 89 1026.5
20260508144121 56 265 0.0 7.0 0.00 0.00 0.00 88 1026.6
20260508143623 56 241 0.0 2.0 0.00 0.00 0.00 88 1026.6
20260508143121 56 241 0.0 3.0 0.00 0.00 0.00 88 1026.5
20260508142618 56 242 0.0 3.0 0.00 0.00 0.00 88 1026.5
20260508142118 56 241 0.0 4.0 0.00 0.00 0.00 88 1026.6
20260508141630 56 269 1.0 8.0 0.00 0.00 0.00 88 1026.5
20260508141622 56 249 1.0 4.0 0.00 0.00 0.00 87 1026.5
20260508140614 56 264 1.0 8.0 0.00 0.00 0.00 87 1026.5
20260508140114 56 241 1.0 6.0 0.00 0.00 0.00 87 1026.5
20260508135613 56 246 1.0 6.0 0.00 0.00 0.00 87 1026.5
20260508135111 56 239 1.0 6.0 0.00 0.00 0.00 86 1026.4
20260508134610 56 235 1.0 6.0 0.00 0.00 0.00 86 1026.5
20260508134111 56 210 1.0 5.0 0.00 0.00 0.00 86 1026.6
20260508133610 56 225 1.0 7.0 0.00 0.00 0.00 86 1026.4
20260508133109 56 235 1.0 7.0 0.00 0.00 0.00 86 1026.5
20260508132609 57 257 1.0 6.0 0.00 0.00 0.00 85 1026.5
20260508132109 57 204 1.0 5.0 0.00 0.00 0.00 86 1026.5
20260508131609 57 209 1.0 8.0 0.00 0.00 0.00 85 1026.5
20260508131111 57 243 1.0 8.0 0.00 0.00 0.00 85 1026.5
20260508130611 57 254 1.0 3.0 0.00 0.00 0.00 85 1026.5
20260508130109 57 258 1.0 7.0 0.00 0.00 0.00 85 1026.5
20260508125609 57 268 1.0 7.0 0.00 0.00 0.00 85 1026.6
20260508125111 57 201 1.0 6.0 0.00 0.00 0.00 85 1026.6
20260508124609 57 197 1.0 7.0 0.00 0.00 0.00 85 1026.6
20260508124111 57 222 1.0 7.0 0.00 0.00 0.00 85 1026.7
20260508123618 57 214 1.0 3.0 0.00 0.00 0.00 84 1026.7
20260508123610 57 229 1.0 8.0 0.00 0.00 0.00 85 1026.7
20260508123111 57 233 1.0 8.0 0.00 0.00 0.00 85 1026.7
20260508122115 57 215 1.0 5.0 0.00 0.00 0.00 84 1026.7
20260508122109 57 215 1.0 5.0 0.00 0.00 0.00 84 1026.7
20260508121111 57 237 1.0 3.0 0.00 0.00 0.00 83 1026.8
20260508120609 57 237 1.0 5.0 0.00 0.00 0.00 83 1026.7
20260508120111 58 235 1.0 5.0 0.00 0.00 0.00 83 1026.7
20260508115615 58 243 1.0 5.0 0.00 0.00 0.00 83 1026.6
20260508115609 58 243 1.0 5.0 0.00 0.00 0.00 83 1026.7
20260508114616 58 230 2.0 6.0 0.00 0.00 0.00 82 1026.6
20260508114611 58 226 1.0 5.0 0.00 0.00 0.00 83 1026.6
20260508113610 58 251 2.0 6.0 0.00 0.00 0.00 82 1026.6
20260508113109 58 243 2.0 6.0 0.00 0.00 0.00 81 1026.6
20260508112609 58 262 2.0 6.0 0.00 0.00 0.00 81 1026.5
20260508112116 58 248 3.0 7.0 0.00 0.00 0.00 80 1026.5
20260508112110 58 223 2.0 7.0 0.00 0.00 0.00 80 1026.5
20260508111739 58 222 2.0 6.0 0.00 0.00 0.00 79 1026.5
20260508110609 58 238 2.0 8.0 0.00 0.00 0.00 79 1026.4
20260508110604 58 226 3.0 8.0 0.00 0.00 0.00 79 1026.4
20260508105605 58 252 3.0 9.0 0.00 0.00 0.00 80 1026.3
20260508105107 58 195 2.0 10.0 0.00 0.00 0.00 80 1026.2
20260508104603 58 205 3.0 10.0 0.00 0.00 0.00 81 1026.2
20260508104102 58 204 3.0 10.0 0.00 0.00 0.00 81 1026.1
20260508103601 58 197 3.0 11.0 0.00 0.00 0.00 81 1026.1
20260508103105 58 201 3.0 10.0 0.00 0.00 0.00 82 1026.1
20260508103100 58 210 3.0 11.0 0.00 0.00 0.00 82 1026.2
20260508102059 58 189 3.0 10.0 0.00 0.00 0.00 82 1026.3
20260508101558 58 237 2.0 9.0 0.00 0.00 0.00 81 1026.3
20260508101059 58 225 2.0 9.0 0.00 0.00 0.00 82 1026.3
20260508100556 58 217 3.0 10.0 0.00 0.00 0.00 82 1026.2
20260508100058 58 243 3.0 10.0 0.00 0.00 0.00 82 1026.2
20260508095557 59 199 3.0 11.0 0.00 0.00 0.00 82 1026.1
20260508095057 58 168 4.0 11.0 0.00 0.00 0.00 82 1026.1
20260508094558 58 194 3.0 15.0 0.00 0.00 0.00 83 1026.0
20260508094059 58 166 3.0 15.0 0.00 0.00 0.00 83 1025.9
20260508093557 58 185 3.0 12.0 0.00 0.00 0.00 84 1025.8
20260508093057 58 235 3.0 11.0 0.00 0.00 0.00 84 1025.8
20260508092603 58 196 3.0 14.0 0.00 0.00 0.00 84 1025.7
20260508092557 58 185 3.0 13.0 0.00 0.00 0.00 84 1025.7
20260508091558 59 194 3.0 14.0 0.00 0.00 0.00 84 1025.7
20260508091057 58 206 3.0 11.0 0.00 0.00 0.00 84 1025.7
20260508090558 58 196 3.0 9.0 0.00 0.00 0.00 83 1025.7
20260508090057 58 207 3.0 12.0 0.00 0.00 0.00 84 1025.6
20260508085555 58 171 3.0 12.0 0.00 0.00 0.00 85 1025.6
20260508085102 58 210 2.0 9.0 0.00 0.00 0.00 85 1025.5
20260508085056 58 227 3.0 9.0 0.00 0.00 0.00 85 1025.6
20260508084056 58 205 2.0 9.0 0.00 0.00 0.00 85 1025.4
20260508083606 58 199 3.0 10.0 0.00 0.00 0.00 84 1025.2
20260508083555 58 162 2.0 10.0 0.00 0.00 0.00 85 1025.4
20260508083055 58 175 2.0 10.0 0.00 0.00 0.00 85 1025.3
20260508082727 58 191 3.0 10.0 0.00 0.00 0.00 84 1025.2
20260508081555 58 189 3.0 9.0 0.00 0.00 0.00 84 1025.3
20260508081104 58 193 4.0 11.0 0.00 0.00 0.00 84 1025.2
20260508081058 58 189 4.0 11.0 0.00 0.00 0.00 84 1025.2
20260508080055 58 185 4.0 10.0 0.00 0.00 0.00 83 1025.2
20260508075552 59 239 3.0 11.0 0.00 0.00 0.00 83 1025.2
20260508075054 59 189 3.0 13.0 0.00 0.00 0.00 82 1025.1
20260508074553 59 190 3.0 13.0 0.00 0.00 0.00 81 1025.0
20260508074052 59 249 3.0 11.0 0.00 0.00 0.00 80 1024.9
20260508073555 59 207 3.0 11.0 0.00 0.00 0.00 80 1024.8
20260508073053 59 185 3.0 11.0 0.00 0.00 0.00 80 1024.7
20260508072559 59 189 4.0 12.0 0.00 0.00 0.00 80 1024.6
20260508072553 59 196 3.0 10.0 0.00 0.00 0.00 80 1024.7
20260508072158 59 192 3.0 10.0 0.00 0.00 0.00 80 1024.6
20260508071717 59 203 4.0 12.0 0.00 0.00 0.00 80 1024.7
20260508070550 59 197 3.0 11.0 0.00 0.00 0.00 80 1024.7
20260508070050 59 195 3.0 10.0 0.00 0.00 0.00 80 1024.7
20260508065553 60 162 4.0 11.0 0.00 0.00 0.00 80 1024.6
20260508065050 60 189 4.0 11.0 0.00 0.00 0.00 80 1024.6
20260508064550 60 180 3.0 11.0 0.00 0.00 0.00 79 1024.5
20260508064057 60 200 4.0 10.0 0.00 0.00 0.00 78 1024.5
20260508064051 60 197 4.0 10.0 0.00 0.00 0.00 78 1024.5
20260508063051 60 171 4.0 10.0 0.00 0.00 0.00 78 1024.5
20260508062550 60 194 3.0 10.0 0.00 0.00 0.00 79 1024.4
20260508061552 60 256 3.0 12.0 0.00 0.00 0.00 80 1024.3
20260508061050 60 212 3.0 9.0 0.00 0.00 0.00 80 1024.2
20260508060550 60 200 4.0 12.0 0.00 0.00 0.00 80 1024.2
20260508060050 60 191 4.0 12.0 0.00 0.00 0.00 80 1024.3
20260508055553 60 214 4.0 14.0 0.00 0.00 0.00 80 1024.3
20260508055050 59 205 4.0 14.0 0.00 0.00 0.00 81 1024.3
20260508054557 59 191 5.0 14.0 0.00 0.00 0.00 81 1024.1
20260508054551 59 175 3.0 12.0 0.00 0.00 0.00 81 1024.1
20260508053547 59 180 6.0 14.0 0.00 0.00 0.00 80 1024.2
20260508053045 60 219 5.0 13.0 0.00 0.00 0.00 80 1024.2
20260508052551 60 216 4.0 13.0 0.00 0.00 0.00 79 1024.2
20260508052546 60 206 4.0 13.0 0.00 0.00 0.00 79 1024.2
20260508051546 60 166 3.0 11.0 0.00 0.00 0.00 80 1024.1
20260508051048 60 165 4.0 13.0 0.00 0.01 0.00 80 1024.2
20260508050546 60 175 4.0 13.0 0.00 0.01 0.00 79 1024.1
20260508050047 60 208 5.0 14.0 0.00 0.01 0.00 79 1024.1
20260508045546 60 151 5.0 14.0 0.00 0.01 0.00 78 1024.2
20260508045046 61 185 5.0 14.0 0.00 0.01 0.00 77 1024.2
20260508044546 60 206 5.0 15.0 0.00 0.01 0.00 76 1024.2
20260508044048 61 191 5.0 15.0 0.00 0.01 0.00 75 1024.1
20260508043547 61 238 4.0 13.0 0.00 0.01 0.00 73 1024.1
20260508043045 61 139 4.0 10.0 0.00 0.01 0.00 74 1024.1
20260508042547 61 185 4.0 10.0 0.00 0.01 0.00 73 1024.2
20260508042213 61 199 4.0 10.0 0.00 0.01 0.00 74 1024.0
20260508042053 61 201 4.0 14.0 0.00 0.01 0.00 74 1024.0
20260508042047 61 185 4.0 14.0 0.00 0.01 0.00 73 1024.1
20260508040548 61 189 3.0 11.0 0.00 0.01 0.00 75 1024.0
20260508040046 60 207 3.0 11.0 0.00 0.01 0.00 75 1023.9
20260508035544 61 235 4.0 11.0 0.00 0.01 0.00 75 1024.0
20260508035044 61 175 3.0 11.0 0.00 0.01 0.00 75 1024.0
20260508034544 61 208 3.0 11.0 0.00 0.01 0.00 76 1023.9
20260508034049 60 202 4.0 16.0 0.00 0.01 0.00 75 1023.8
20260508034044 60 200 3.0 16.0 0.00 0.01 0.00 76 1023.9
20260508033717 60 201 5.0 17.0 0.00 0.01 0.00 74 1023.8
20260508032544 60 207 5.0 17.0 0.00 0.01 0.00 75 1023.8
20260508032046 60 203 5.0 12.0 0.00 0.01 0.00 76 1023.9
20260508031543 61 266 4.0 17.0 0.00 0.01 0.00 76 1023.8
20260508031042 61 255 5.0 17.0 0.00 0.01 0.00 75 1024.0
20260508030543 60 220 4.0 11.0 0.00 0.01 0.00 74 1024.0
20260508030044 60 175 4.0 10.0 0.00 0.02 0.00 75 1024.0
20260508025542 60 189 4.0 13.0 0.00 0.03 0.00 75 1024.0
20260508025041 61 185 4.0 13.0 0.00 0.04 0.00 76 1024.0
20260508024539 61 218 3.0 12.0 0.00 0.04 0.00 76 1024.0
20260508024038 61 185 2.0 12.0 0.00 0.04 0.00 78 1023.9
20260508023536 61 196 2.0 8.0 0.00 0.04 0.00 80 1023.9
20260508023037 60 211 2.0 8.0 0.00 0.04 0.00 79 1024.1
20260508022538 61 203 2.0 8.0 0.00 0.04 0.00 80 1024.3
20260508022036 61 209 2.0 10.0 0.00 0.04 0.00 79 1024.3
20260508021538 61 251 3.0 10.0 0.00 0.04 0.00 79 1024.5
20260508021034 61 218 2.0 8.0 0.00 0.04 0.00 81 1024.4
20260508020536 61 245 3.0 8.0 0.00 0.05 0.00 81 1024.5
20260508020039 60 243 2.0 9.0 0.00 0.05 0.00 82 1024.5
20260508020034 60 242 2.0 8.0 0.00 0.05 0.00 82 1024.5
20260508015033 60 262 3.0 10.0 0.00 0.05 0.00 82 1024.6
20260508014534 60 214 3.0 10.0 0.00 0.05 0.00 83 1024.6
20260508014034 59 213 3.0 12.0 0.00 0.05 0.00 83 1024.6
20260508013532 59 225 3.0 12.0 0.00 0.05 0.00 83 1024.4
20260508013032 59 239 2.0 9.0 0.00 0.05 0.00 83 1024.3
20260508012532 59 214 2.0 9.0 0.00 0.05 0.00 83 1024.3
20260508012033 59 216 2.0 9.0 0.00 0.05 0.00 82 1024.3
20260508011532 59 199 3.0 12.0 0.00 0.05 0.00 81 1024.4
20260508011039 60 210 3.0 9.0 0.00 0.05 0.00 83 1024.3
20260508011033 60 247 3.0 12.0 0.00 0.05 0.00 80 1024.4
20260508010030 60 175 3.0 9.0 0.00 0.05 0.00 84 1024.3
20260508005530 59 207 2.0 7.0 0.00 0.06 0.00 84 1024.2
20260508005030 59 191 3.0 11.0 0.00 0.06 0.00 84 1024.2
20260508004530 59 175 3.0 11.0 0.00 0.06 0.00 82 1024.2
20260508004029 60 251 3.0 12.0 0.00 0.06 0.00 82 1024.3
20260508003529 60 224 3.0 12.0 0.00 0.06 0.00 82 1024.2
20260508003132 60 237 2.0 10.0 0.00 0.06 0.00 82 1024.2
20260508002028 59 199 3.0 10.0 0.00 0.06 0.00 82 1023.9
20260508001526 59 233 3.0 14.0 0.00 0.07 0.00 82 1024.0
20260508001026 59 213 2.0 14.0 0.00 0.09 0.00 83 1023.9
20260508000526 59 213 2.0 11.0 0.00 0.09 0.00 83 1023.8
20260508000026 59 24 3.0 11.0 0.00 0.09 0.00 84 1023.8
20260507235526 58 237 3.0 11.0 0.00 0.09 0.00 84 1023.9
20260507235027 58 209 2.0 10.0 0.00 0.09 0.00 85 1023.8
20260507234531 58 227 2.0 9.0 0.00 0.09 0.00 86 1023.8
20260507234525 58 209 2.0 9.0 0.00 0.09 0.00 85 1023.8
20260507233527 58 227 2.0 8.0 0.00 0.11 0.00 87 1023.6
20260507233521 58 262 2.0 8.0 0.00 0.11 0.00 86 1023.8
20260507232523 57 209 2.0 8.0 0.00 0.11 0.00 86 1023.6
20260507232019 57 226 2.0 6.0 0.00 0.11 0.00 87 1023.5
20260507231520 57 217 2.0 6.0 0.00 0.11 0.00 88 1023.6
20260507231020 57 232 2.0 6.0 0.00 0.12 0.00 87 1023.4
20260507230520 57 215 1.0 9.0 0.00 0.12 0.00 87 1023.4
20260507230017 57 240 2.0 9.0 0.00 0.12 0.00 88 1023.5
20260507225519 57 210 2.0 9.0 0.00 0.12 0.00 88 1023.6
20260507225019 57 226 1.0 8.0 0.00 0.13 0.00 88 1023.6
20260507224515 57 185 1.0 8.0 0.00 0.15 0.00 88 1023.5
20260507224015 57 219 1.0 6.0 0.00 0.15 0.00 88 1023.4
20260507223515 57 241 1.0 12.0 0.00 0.15 0.00 88 1023.2
20260507223015 57 231 2.0 12.0 0.00 0.16 0.00 88 1023.2
20260507222515 56 262 2.0 9.0 0.00 0.16 0.00 88 1023.2
20260507222016 56 219 2.0 9.0 0.00 0.16 0.00 88 1023.2
20260507221517 56 175 1.0 6.0 0.00 0.16 0.00 89 1023.2
20260507221015 56 203 2.0 6.0 0.00 0.16 0.00 89 1023.2
20260507220515 56 235 2.0 6.0 0.00 0.16 0.00 89 1023.1
20260507220015 56 229 1.0 6.0 0.00 0.16 0.00 89 1023.1
20260507215517 56 228 1.0 6.0 0.00 0.16 0.00 89 1022.9
20260507215017 56 316 1.0 6.0 0.00 0.16 0.00 89 1022.9
20260507214515 56 241 1.0 9.0 0.00 0.16 0.00 89 1022.7
20260507214015 56 239 2.0 9.0 0.00 0.16 0.00 89 1022.6
20260507213521 56 242 2.0 9.0 0.00 0.17 0.00 89 1022.4
20260507213515 56 247 2.0 9.0 0.00 0.17 0.00 89 1022.5